Weather History for KPRO - September, 2012

Change the Weather History Date:

Tuesday, September 18, 2012

  Actual Average Record
Temperature  
Mean Temperature 52 °F -  
Max Temperature 68 °F 75 °F 95 °F (1948)
Min Temperature 37 °F 49 °F 33 °F (1980)
Degree Days  
Heating Degree Days 12    
Growing Degree Days 2 (Base 50)    
Moisture  
Dew Point 35 °F    
Average Humidity 54    
Maximum Humidity 93    
Minimum Humidity 18    
Precipitation  
Precipitation 0.00 in - - ()
Sea Level Pressure  
Sea Level Pressure 30.03 in    
Wind  
Wind Speed 7 mph (WNW)    
Max Wind Speed 14 mph    
Max Gust Speed 20 mph    
Visibility 10 miles    
Events      
Averages and records for this station are not official NWS values.
T = Trace of Precipitation, MM = Missing Value Source: NWS Daily Summary

Daily Weather History Graph

Daily Weather History Graph

Search for Another Location

Airport or City:

Trip Planner

Search our weather history database for the weather conditions in past years. The results will help you decide how hot, cold, wet, or windy it might be!

Date:

Astronomy

Sep. 18, 2012 Rise Set
Actual Time 7:00 AM CDT 7:19 PM CDT
Civil Twilight 6:32 AM CDT 7:47 PM CDT
Nautical Twilight 5:59 AM CDT 8:20 PM CDT
Astronomical Twilight 5:26 AM CDT 8:53 PM CDT
Moon 10:04 AM CDT (9/18) 8:39 PM CDT (9/18)
Length of Visible Light 13h 15m
Length of Day
12h 19m
Waxing Crescent, 9% of the Moon is Illuminated
Sep 18
Waxing Crescent
Sep 22
First Quarter
Sep 29
Full
Oct 8
Last Quarter
Oct 15
New

Hourly Weather History & Observations

Time (CDT) Temp. Windchill Dew Point Humidity Pressure Visibility Wind Dir Wind Speed Gust Speed Precip Events Conditions
12:15 AM 50.0 °F - 42.1 °F 74% 30.03 in 10.0 mi NW 6.9 mph - N/A   Scattered Clouds
12:35 AM 49.6 °F - 42.1 °F 75% 30.03 in 10.0 mi NW 6.9 mph - N/A   Clear
12:55 AM 48.9 °F - 41.9 °F 77% 30.04 in 10.0 mi NW 8.1 mph - N/A   Clear
1:15 AM 48.6 °F - 41.9 °F 78% 30.04 in 10.0 mi NW 6.9 mph - N/A   Clear
1:35 AM 47.3 °F - 41.2 °F 79% 30.04 in 10.0 mi NW 5.8 mph - N/A   Clear
1:55 AM 46.6 °F - 41.2 °F 81% 30.04 in 10.0 mi NW 5.8 mph - N/A   Clear
2:15 AM 45.5 °F 42.5 °F 41.0 °F 84% 30.04 in 10.0 mi NW 5.8 mph - N/A   Clear
2:35 AM 45.9 °F 42.3 °F 41.4 °F 84% 30.04 in 10.0 mi NW 6.9 mph - N/A   Clear
3:15 AM 45.0 °F 41.8 °F 40.6 °F 85% 30.04 in 10.0 mi NW 5.8 mph - N/A   Clear
3:35 AM 44.4 °F 41.2 °F 40.6 °F 87% 30.04 in 10.0 mi WNW 5.8 mph - N/A   Clear
3:55 AM 43.7 °F 41.1 °F 40.1 °F 87% 30.04 in 10.0 mi NW 4.6 mph - N/A   Clear
4:15 AM 43.9 °F 40.5 °F 40.1 °F 87% 30.04 in 10.0 mi NW 5.8 mph - N/A   Clear
4:35 AM 43.0 °F 38.8 °F 39.2 °F 86% 30.04 in 10.0 mi WNW 6.9 mph - N/A   Clear
5:15 AM 39.7 °F 37.6 °F 37.0 °F 90% 30.04 in 10.0 mi WNW 3.5 mph - N/A   Clear
5:35 AM 38.8 °F 34.6 °F 36.5 °F 91% 30.04 in 10.0 mi WNW 5.8 mph - N/A   Clear
5:55 AM 38.5 °F 35.0 °F 36.5 °F 93% 30.04 in 10.0 mi West 4.6 mph - N/A   Clear
6:15 AM 38.3 °F 33.2 °F 36.1 °F 92% 30.05 in 10.0 mi West 6.9 mph - N/A   Clear
6:35 AM 38.3 °F 33.2 °F 36.3 °F 93% 30.06 in 10.0 mi West 6.9 mph - N/A   Clear
6:55 AM 37.6 °F 32.3 °F 35.6 °F 93% 30.06 in 10.0 mi West 6.9 mph - N/A   Clear
10:15 AM 55.2 °F - 40.1 °F 57% 30.10 in 10.0 mi NNW 9.2 mph - N/A   Clear
10:35 AM 57.4 °F - 39.7 °F 52% 30.09 in 10.0 mi WNW 8.1 mph - N/A   Clear
10:55 AM 58.8 °F - 37.4 °F 45% 30.09 in 10.0 mi NW 8.1 mph - N/A   Clear
11:15 AM 60.1 °F - 35.2 °F 39% 30.09 in 10.0 mi NW 11.5 mph - N/A   Clear
11:35 AM 60.8 °F - 33.4 °F 36% 30.09 in 10.0 mi NW 6.9 mph - N/A   Clear
11:55 AM 61.7 °F - 31.1 °F 32% 30.08 in 10.0 mi NW 10.4 mph 16.1 mph N/A   Clear
12:15 PM 62.6 °F - 29.8 °F 29% 30.08 in 10.0 mi NNW 10.4 mph 17.3 mph N/A   Clear
12:35 PM 63.3 °F - 30.0 °F 29% 30.07 in 10.0 mi NNW 10.4 mph - N/A   Clear
12:55 PM 63.7 °F - 28.9 °F 27% 30.07 in 10.0 mi WNW 13.8 mph 18.4 mph N/A   Clear
1:15 PM 64.6 °F - 29.3 °F 27% 30.07 in 10.0 mi WNW 12.7 mph 18.4 mph N/A   Clear
1:35 PM 64.6 °F - 28.2 °F 25% 30.06 in 10.0 mi West 3.5 mph - N/A   Clear
1:55 PM 65.3 °F - 28.6 °F 25% 30.05 in 10.0 mi NW 5.8 mph 10.4 mph N/A   Clear
2:15 PM 65.7 °F - 28.6 °F 25% 30.04 in 10.0 mi WNW 11.5 mph 19.6 mph N/A   Clear
2:35 PM 66.2 °F - 27.5 °F 23% 30.04 in 10.0 mi NW 11.5 mph 16.1 mph N/A   Clear
2:55 PM 66.7 °F - 27.7 °F 23% 30.04 in 10.0 mi WNW 9.2 mph - N/A   Clear
3:15 PM 67.3 °F - 26.8 °F 22% 30.03 in 10.0 mi NW 3.5 mph - N/A   Clear
3:35 PM 67.5 °F - 26.4 °F 21% 30.02 in 10.0 mi West 5.8 mph - N/A   Clear
3:55 PM 67.3 °F - 25.0 °F 20% 30.02 in 10.0 mi NW 4.6 mph - N/A   Clear
4:15 PM 67.1 °F - 25.2 °F 21% 30.01 in 10.0 mi NNW 5.8 mph - N/A   Clear
4:35 PM 68.2 °F - 23.2 °F 18% 30.01 in 10.0 mi West 9.2 mph - N/A   Clear
4:55 PM 67.6 °F - 23.5 °F 19% 30.00 in 10.0 mi NW 9.2 mph - N/A   Clear
5:15 PM 67.8 °F - 24.4 °F 19% 30.00 in 10.0 mi WNW 6.9 mph - N/A   Clear
5:35 PM 66.9 °F - 25.0 °F 21% 30.00 in 10.0 mi West 5.8 mph - N/A   Clear
5:55 PM 65.7 °F - 26.2 °F 23% 30.00 in 10.0 mi WNW 3.5 mph - N/A   Clear
6:15 PM 65.1 °F - 27.3 °F 24% 30.00 in 10.0 mi Calm Calm - N/A   Clear
6:35 PM 63.5 °F - 27.9 °F 26% 29.99 in 10.0 mi Calm Calm - N/A   Scattered Clouds
7:15 PM 58.6 °F - 41.2 °F 52% 29.99 in 10.0 mi Calm Calm - N/A   Scattered Clouds
7:35 PM 54.1 °F - 44.2 °F 69% 29.99 in 10.0 mi Calm Calm - N/A   Clear
7:55 PM 52.9 °F - 41.0 °F 64% 29.99 in 10.0 mi SSE 4.6 mph - N/A   Clear
8:15 PM 53.6 °F - 37.8 °F 55% 29.99 in 10.0 mi SSE 3.5 mph - N/A   Scattered Clouds
8:35 PM 52.9 °F - 38.7 °F 58% 30.00 in 10.0 mi SSE 4.6 mph - N/A   Overcast
8:55 PM 53.6 °F - 40.6 °F 62% 29.99 in 10.0 mi SE 4.6 mph - N/A   Overcast
9:15 PM 53.8 °F - 41.0 °F 62% 30.00 in 10.0 mi SSE 3.5 mph - N/A   Overcast
9:55 PM 50.9 °F - 41.0 °F 69% 29.99 in 10.0 mi SSE 5.8 mph - N/A   Scattered Clouds
10:15 PM 51.1 °F - 40.5 °F 67% 29.98 in 10.0 mi South 4.6 mph - N/A   Clear
10:55 PM 51.3 °F - 38.7 °F 62% 29.98 in 10.0 mi South 6.9 mph - N/A   Clear
11:15 PM 51.1 °F - 38.1 °F 61% 29.97 in 10.0 mi SSE 4.6 mph - N/A   Clear
11:35 PM 49.1 °F - 38.5 °F 67% 29.97 in 10.0 mi SSE 4.6 mph - N/A   Clear
11:55 PM 48.6 °F - 38.5 °F 68% 29.97 in 10.0 mi South 4.6 mph - N/A   Clear